| time (UTC) | temp F | wind direction | speed MPH | gust MPH | rain 1hr in | rain 24hr in | rain mn in | humidity % | barometer mb |
| 20260502211528 | 96 | 118 | 5.0 | 16.0 | 0.00 | 0.00 | 0.00 | 8 | 1006.6 |
| 20260502210027 | 97 | 124 | 6.0 | 11.0 | 0.00 | 0.00 | 0.00 | 7 | 1007.0 |
| 20260502204507 | 97 | 102 | 5.0 | 10.0 | 0.00 | 0.00 | 0.00 | 7 | 1007.3 |
| 20260502203005 | 97 | 115 | 11.0 | 15.0 | 0.00 | 0.00 | 0.00 | 7 | 1007.4 |
| 20260502201555 | 96 | 83 | 3.0 | 11.0 | 0.00 | 0.00 | 0.00 | 7 | 1007.5 |
| 20260502200053 | 96 | 57 | 7.0 | 14.0 | 0.00 | 0.00 | 0.00 | 7 | 1007.7 |
| 20260502194550 | 97 | 126 | 5.0 | 11.0 | 0.00 | 0.00 | 0.00 | 8 | 1008.1 |
| 20260502193049 | 96 | 84 | 5.0 | 10.0 | 0.00 | 0.00 | 0.00 | 7 | 1008.4 |
| 20260502191556 | 96 | 162 | 6.0 | 12.0 | 0.00 | 0.00 | 0.00 | 8 | 1008.5 |
| 20260502190050 | 95 | 100 | 2.0 | 11.0 | 0.00 | 0.00 | 0.00 | 8 | 1008.6 |
| 20260502184548 | 95 | 106 | 5.0 | 11.0 | 0.00 | 0.00 | 0.00 | 8 | 1008.9 |
| 20260502183052 | 94 | 81 | 3.0 | 9.0 | 0.00 | 0.00 | 0.00 | 8 | 1009.0 |
| 20260502181519 | 94 | 136 | 3.0 | 11.0 | 0.00 | 0.00 | 0.00 | 9 | 1009.1 |
| 20260502163101 | 90 | 150 | 3.0 | 5.0 | 0.00 | 0.00 | 0.00 | 14 | 1009.1 |
| 20260502161536 | 90 | 188 | 1.0 | 4.0 | 0.00 | 0.00 | 0.00 | 15 | 1009.1 |
| 20260502151545 | 83 | 202 | 0.0 | 0.0 | 0.00 | 0.00 | 0.00 | 19 | 1009.0 |
| 20260502123041 | 75 | 312 | 5.0 | 10.0 | 0.00 | 0.00 | 0.00 | 23 | 1007.5 |
| 20260502121521 | 74 | 311 | 1.0 | 5.0 | 0.00 | 0.00 | 0.00 | 24 | 1007.2 |
| 20260502114501 | 75 | 298 | 1.0 | 4.0 | 0.00 | 0.00 | 0.00 | 24 | 1007.0 |
| 20260502113059 | 76 | 44 | 0.0 | 8.0 | 0.00 | 0.00 | 0.00 | 24 | 1007.0 |
| 20260502111606 | 76 | 306 | 5.0 | 10.0 | 0.00 | 0.00 | 0.00 | 23 | 1006.9 |
| 20260502110039 | 75 | 302 | 5.0 | 8.0 | 0.00 | 0.00 | 0.00 | 24 | 1007.0 |
| 20260502104538 | 75 | 324 | 4.0 | 8.0 | 0.00 | 0.00 | 0.00 | 25 | 1007.0 |
| 20260502103017 | 76 | 275 | 3.0 | 5.0 | 0.00 | 0.00 | 0.00 | 24 | 1007.0 |
| 20260502101526 | 75 | 287 | 4.0 | 8.0 | 0.00 | 0.00 | 0.00 | 24 | 1006.9 |
| 20260502091531 | 77 | 238 | 0.0 | 0.0 | 0.00 | 0.00 | 0.00 | 23 | 1007.3 |
| 20260502071503 | 80 | 318 | 2.0 | 6.0 | 0.00 | 0.00 | 0.00 | 25 | 1007.1 |
| 20260502070045 | 81 | 265 | 3.0 | 7.0 | 0.00 | 0.00 | 0.00 | 25 | 1007.0 |
| 20260502064543 | 82 | 277 | 5.0 | 10.0 | 0.00 | 0.00 | 0.00 | 24 | 1007.3 |
| 20260502063029 | 82 | 311 | 4.0 | 6.0 | 0.00 | 0.00 | 0.00 | 24 | 1007.3 |
| 20260502061525 | 83 | 324 | 3.0 | 8.0 | 0.00 | 0.00 | 0.00 | 25 | 1007.4 |
| 20260502060007 | 83 | 329 | 2.0 | 8.0 | 0.00 | 0.00 | 0.00 | 29 | 1007.3 |
| 20260502054507 | 83 | 346 | 4.0 | 9.0 | 0.00 | 0.00 | 0.00 | 29 | 1006.9 |
| 20260502053101 | 84 | 340 | 2.0 | 10.0 | 0.00 | 0.00 | 0.00 | 29 | 1007.0 |
| 20260502051603 | 85 | 301 | 3.0 | 9.0 | 0.00 | 0.00 | 0.00 | 27 | 1007.0 |
| 20260502050037 | 86 | 329 | 3.0 | 9.0 | 0.00 | 0.00 | 0.00 | 27 | 1006.9 |
| 20260502044536 | 86 | 317 | 9.0 | 12.0 | 0.00 | 0.00 | 0.00 | 26 | 1006.9 |
| 20260502043013 | 86 | 304 | 6.0 | 11.0 | 0.00 | 0.00 | 0.00 | 25 | 1006.6 |
| 20260502041513 | 87 | 290 | 5.0 | 11.0 | 0.00 | 0.00 | 0.00 | 24 | 1006.3 |
| 20260502040055 | 88 | 304 | 5.0 | 9.0 | 0.00 | 0.00 | 0.00 | 23 | 1006.4 |
| 20260502034555 | 88 | 337 | 3.0 | 9.0 | 0.00 | 0.00 | 0.00 | 22 | 1006.0 |
| 20260502033050 | 89 | 309 | 4.0 | 9.0 | 0.00 | 0.00 | 0.00 | 20 | 1005.8 |
| 20260502031537 | 89 | 291 | 3.0 | 9.0 | 0.00 | 0.00 | 0.00 | 19 | 1005.7 |
| 20260502030019 | 90 | 266 | 4.0 | 11.0 | 0.00 | 0.00 | 0.00 | 19 | 1005.4 |
| 20260502024518 | 91 | 234 | 5.0 | 13.0 | 0.00 | 0.00 | 0.00 | 19 | 1005.2 |
| 20260502023101 | 91 | 266 | 5.0 | 10.0 | 0.00 | 0.00 | 0.00 | 19 | 1005.1 |
| 20260502021600 | 93 | 261 | 6.0 | 11.0 | 0.00 | 0.00 | 0.00 | 18 | 1005.0 |
| 20260502020052 | 95 | 226 | 4.0 | 9.0 | 0.00 | 0.00 | 0.00 | 15 | 1004.9 |
| 20260502014542 | 95 | 192 | 2.0 | 4.0 | 0.00 | 0.00 | 0.00 | 10 | 1004.9 |
| 20260502013025 | 95 | 194 | 0.0 | 4.0 | 0.00 | 0.00 | 0.00 | 10 | 1004.9 |
| 20260502011525 | 96 | 127 | 3.0 | 5.0 | 0.00 | 0.00 | 0.00 | 10 | 1004.8 |
| 20260502010006 | 98 | 67 | 1.0 | 4.0 | 0.00 | 0.00 | 0.00 | 9 | 1004.7 |
| 20260502004506 | 99 | 316 | 2.0 | 4.0 | 0.00 | 0.00 | 0.00 | 9 | 1004.6 |
| 20260502003048 | 99 | 24 | 4.0 | 8.0 | 0.00 | 0.00 | 0.00 | 9 | 1004.7 |
| 20260502001558 | 100 | 92 | 0.0 | 5.0 | 0.00 | 0.00 | 0.00 | 9 | 1004.7 |
| 20260502000030 | 100 | 360 | 1.0 | 6.0 | 0.00 | 0.00 | 0.00 | 9 | 1004.9 |
| 20260501234525 | 99 | 36 | 2.0 | 8.0 | 0.00 | 0.00 | 0.00 | 10 | 1004.9 |
| 20260501233007 | 97 | 30 | 3.0 | 8.0 | 0.00 | 0.00 | 0.00 | 10 | 1004.9 |
| 20260501231505 | 96 | 111 | 8.0 | 11.0 | 0.00 | 0.00 | 0.00 | 10 | 1005.0 |
| 20260501230049 | 96 | 69 | 3.0 | 11.0 | 0.00 | 0.00 | 0.00 | 10 | 1005.2 |
| 20260501224548 | 98 | 102 | 3.0 | 8.0 | 0.00 | 0.00 | 0.00 | 10 | 1005.4 |
| 20260501223046 | 97 | 115 | 6.0 | 10.0 | 0.00 | 0.00 | 0.00 | 10 | 1005.6 |
| 20260501221528 | 97 | 76 | 3.0 | 9.0 | 0.00 | 0.00 | 0.00 | 10 | 1005.7 |
| 20260501220006 | 96 | 175 | 5.0 | 10.0 | 0.00 | 0.00 | 0.00 | 11 | 1006.0 |
| 20260501214504 | 96 | 98 | 3.0 | 10.0 | 0.00 | 0.00 | 0.00 | 11 | 1006.3 |
| 20260501213045 | 96 | 115 | 3.0 | 11.0 | 0.00 | 0.00 | 0.00 | 11 | 1006.7 |